Juliana Airport, Sint Maarten

2:10 AM AST on April 30, 2017 (GMT -0400)
Princess Juliana International

Weather History for TNCM - July, 2014

Change the Weather History Date:

Wednesday, July 16, 2014

  Actual Average Record
Temperature  
Mean Temperature 82 °F -  
Max Temperature 86 °F 87 °F 91 °F (1998)
Min Temperature 79 °F 77 °F 75 °F (2003)
Cooling Degree Days 18    
Growing Degree Days 32 (Base 50)    
Moisture  
Dew Point 73 °F    
Average Humidity 70    
Maximum Humidity 83    
Minimum Humidity 58    
Precipitation  
Precipitation 0.00 in 0.12 in - ()
Sea Level Pressure  
Sea Level Pressure 30.08 in    
Wind  
Wind Speed 11 mph ()    
Max Wind Speed 15 mph    
Max Gust Speed -    
Visibility 6.2 miles    
Events Rain    
Averages and records for this station are not official NWS values.
T = Trace of Precipitation, MM = Missing Value Source: Averaged Metar Reports

Daily Weather History Graph

Daily Weather History Graph

Search for Another Location

Airport or City:

Trip Planner

Search our weather history database for the weather conditions in past years. The results will help you decide how hot, cold, wet, or windy it might be!

Date:

Astronomy

Jul. 16, 2014 Rise Set
Actual Time 5:45 AM AST 6:51 PM AST
Civil Twilight 5:21 AM AST 7:15 PM AST
Nautical Twilight 4:53 AM AST 7:43 PM AST
Astronomical Twilight 4:24 AM AST 8:12 PM AST
Moon 10:24 PM AST (7/16) 9:57 AM AST (7/16)
Length of Visible Light 13h 53m
Length of Day
13h 06m
Waning Gibbous, 76% of the Moon is Illuminated
Jul 16
Waning Gibbous
Jul 18
Last Quarter
Jul 26
New
Aug 3
First Quarter
Aug 10
Full

Hourly Weather History & Observations

Time (AST) Temp. Heat Index Dew Point Humidity Pressure Visibility Wind Dir Wind Speed Gust Speed Precip Events Conditions
12:00 AM 78.8 °F - 73.4 °F 83% 30.09 in 6.2 mi ESE 13.8 mph - N/A Rain Light Rain Showers
1:00 AM 80.6 °F 85.4 °F 73.4 °F 79% 30.06 in 6.2 mi ESE 9.2 mph - N/A   Scattered Clouds
2:00 AM 80 °F - 73 °F 75% 30.08 in 22 mi SE 13.8 mph - -   Partly Cloudy
2:00 AM 80.6 °F 85.4 °F 73.4 °F 79% 30.06 in 6.2 mi SE 13.8 mph - N/A   Scattered Clouds
3:00 AM 80.6 °F 84.6 °F 71.6 °F 74% 30.06 in 6.2 mi ESE 10.4 mph - N/A   Scattered Clouds
4:00 AM 80.6 °F 85.4 °F 73.4 °F 79% 30.06 in 6.2 mi ESE 15.0 mph - N/A   Scattered Clouds
5:00 AM 81 °F - 71 °F 65% 30.06 in 28 mi ESE 9.2 mph - -  
5:00 AM 80.6 °F 84.6 °F 71.6 °F 74% 30.06 in 6.2 mi ESE 9.2 mph - N/A   Scattered Clouds
6:00 AM 82.4 °F 87.2 °F 71.6 °F 70% 30.06 in 6.2 mi ESE 11.5 mph - N/A   Scattered Clouds
7:00 AM 82.4 °F 87.2 °F 71.6 °F 70% 30.09 in 6.2 mi ESE 12.7 mph - N/A   Partly Cloudy
8:00 AM 83 °F - 73 °F 65% 30.12 in 22 mi ESE 11.5 mph - - Rain Light Rain Showers
8:00 AM 82.4 °F 88.2 °F 73.4 °F 74% 30.09 in 6.2 mi ESE 11.5 mph - N/A   Partly Cloudy
9:00 AM 84.2 °F 90.9 °F 73.4 °F 70% 30.09 in 6.2 mi ESE 12.7 mph - N/A   Scattered Clouds
10:00 AM 86.0 °F 93.4 °F 73.4 °F 66% 30.09 in 6.2 mi ESE 11.5 mph - N/A   Partly Cloudy
11:00 AM 86 °F - 73 °F 58% 30.12 in 22 mi ESE 11.5 mph - -   Partly Cloudy
11:00 AM 86.0 °F 93.4 °F 73.4 °F 66% 30.12 in 6.2 mi ESE 11.5 mph - N/A   Scattered Clouds
12:00 PM 86.0 °F 93.4 °F 73.4 °F 66% 30.09 in 6.2 mi SE 13.8 mph - N/A   Scattered Clouds
1:00 PM 86.0 °F 93.4 °F 73.4 °F 66% 30.09 in 6.2 mi ESE 13.8 mph - N/A   Scattered Clouds
2:00 PM 86 °F - 74 °F 59% 30.09 in 22 mi ESE 13.8 mph - -  
2:00 PM 86.0 °F 93.4 °F 73.4 °F 66% 30.09 in 6.2 mi ESE 13.8 mph - N/A   Scattered Clouds
3:00 PM 86.0 °F 93.4 °F 73.4 °F 66% 30.06 in 6.2 mi ESE 13.8 mph - N/A   Scattered Clouds
4:00 PM 84.2 °F 90.9 °F 73.4 °F 70% 30.06 in 6.2 mi ESE 12.7 mph - N/A   Partly Cloudy
5:00 PM 83 °F - 73 °F 65% 30.07 in 22 mi East 12.7 mph - -   Scattered Clouds
5:00 PM 84.2 °F 90.9 °F 73.4 °F 70% 30.06 in 6.2 mi East 12.7 mph - N/A   Partly Cloudy
6:00 PM 84.2 °F 90.9 °F 73.4 °F 70% 30.06 in 6.2 mi East 10.4 mph - N/A   Partly Cloudy
7:00 PM 82.4 °F 87.2 °F 71.6 °F 70% 30.06 in 6.2 mi East 12.7 mph - N/A   Partly Cloudy
8:00 PM 82 °F - 72 °F 66% 30.11 in 28 mi East 12.7 mph - -   Scattered Clouds
8:00 PM 82.4 °F 87.2 °F 71.6 °F 70% 30.09 in 6.2 mi East 12.7 mph - N/A   Partly Cloudy
9:00 PM 82.4 °F 88.2 °F 73.4 °F 74% 30.09 in 6.2 mi East 11.5 mph - N/A   Partly Cloudy
11:00 PM 82 °F - 72 °F 66% 30.13 in 28 mi East 11.5 mph - -   Scattered Clouds
11:00 PM 82.4 °F 88.2 °F 73.4 °F 74% 30.12 in 6.2 mi East 11.5 mph - N/A   Partly Cloudy